This demonstration page uses our WeatherBlox Daily Observations layout. Learn more.

Left ArrowRight Arrow

Hourly Observations for August 10, 2017

Temp ( °F °C ) Dew Point ( °F °C ) Humidity (%) Winds ( mph kmh ) Pressure ( in mb ) Visibility ( mi km ) Precip ( " mm )
12:15 am 00:15 Partly Cloudy 59 14.8 56 13.4 91 91 Calm 30.15 1021 10 16 0.00 0.00
12:35 am 00:35 Partly Cloudy 58 14.5 56 13.3 93 93 Calm 30.15 1021 10 16 0.00 0.00
12:55 am 00:55 Partly Cloudy 59 15.2 56 13.5 90 90 Calm 30.15 1021 10 16 0.00 0.00
1:15 am 01:15 Partly Cloudy 58 14.5 56 13.5 94 94 Calm 30.15 1021 10 16 0.00 0.00
1:35 am 01:35 Clear 57 13.8 55 12.9 94 94 Calm 30.12 1020 10 16 0.00 0.00
1:55 am 01:55 Clear 58 14.2 56 13.2 94 94 Calm 30.12 1020 10 16 0.00 0.00
2:15 am 02:15 Clear 56 13.5 55 12.8 96 96 Calm 30.15 1021 10 16 0.00 0.00
2:35 am 02:35 Clear 56 13.4 55 12.6 95 95 Calm 30.15 1021 10 16 0.00 0.00
2:55 am 02:55 Clear 56 13.6 55 13 96 96 Calm 30.15 1021 10 16 0.00 0.00
3:15 am 03:15 Clear 56 13.6 55 12.8 95 95 Calm 30.15 1021 10 16 0.00 0.00
3:35 am 03:35 Clear 56 13.1 54 12.3 95 95 Calm 30.15 1021 10 16 0.00 0.00
3:55 am 03:55 Partly Cloudy 55 13 54 12.3 96 96 Calm 30.15 1021 10 16 0.00 0.00
4:15 am 04:15 Partly Cloudy 56 13.1 55 12.6 97 97 Calm 30.15 1021 10 16 0.00 0.00
4:35 am 04:35 Partly Cloudy 56 13.1 55 12.6 97 97 Calm 30.15 1021 10 16 0.00 0.00
4:55 am 04:55 Partly Cloudy 56 13.6 55 13 96 96 Calm 30.15 1021 10 16 0.00 0.00
5:15 am 05:15 Partly Cloudy 56 13.6 55 13 96 96 Calm 30.15 1021 10 16 0.00 0.00
5:35 am 05:35 Partly Cloudy 57 14 56 13.3 96 96 Calm 30.12 1020 10 16 0.00 0.00
5:55 am 05:55 Partly Cloudy 56 13.4 55 12.9 97 97 Calm 30.15 1021 10 16 0.00 0.00
6:15 am 06:15 Partly Cloudy 56 13.6 55 13 96 96 Calm 30.15 1021 10 16 0.00 0.00
6:35 am 06:35 Partly Cloudy 56 13.5 55 13 97 97 Calm 30.15 1021 10 16 0.00 0.00
6:55 am 06:55 Partly Cloudy 56 13.1 55 12.7 97 97 Calm 30.15 1021 10 16 0.00 0.00
7:15 am 07:15 Partly Cloudy 56 13.2 55 12.8 97 97 Calm 30.15 1021 10 16 0.00 0.00
7:35 am 07:35 Partly Cloudy 57 13.9 56 13.4 97 97 Calm 30.12 1020 10 16 0.00 0.00
7:55 am 07:55 Partly Cloudy 58 14.6 57 13.9 96 96 Calm 30.12 1020 10 16 0.00 0.00
8:15 am 08:15 Partly Cloudy 61 16.2 59 14.9 92 92 Calm 30.12 1020 10 16 0.00 0.00
8:35 am 08:35 Partly Cloudy 64 17.9 60 15.5 86 86 Calm 30.12 1020 10 16 0.00 0.00
8:55 am 08:55 Partly Cloudy 67 19.2 60 15.4 79 79 Calm 30.12 1020 10 16 0.00 0.00
9:15 am 09:15 Sunny 68 20 59 15.2 74 74 Calm 30.12 1020 10 16 0.00 0.00
9:35 am 09:35 Sunny 70 20.9 60 15.5 71 71 Calm 30.12 1020 10 16 0.00 0.00
9:55 am 09:55 Sunny 71 21.9 59 15.1 65 65 Calm 30.12 1020 10 16 0.00 0.00
10:15 am 10:15 Sunny 73 22.6 60 15.5 64 64 Calm 30.09 1019 10 16 0.00 0.00
10:35 am 10:35 Sunny 74 23.4 59 14.9 59 59 Calm 30.09 1019 10 16 0.00 0.00
10:55 am 10:55 Sunny 75 24.1 59 14.8 56 56 Calm 30.09 1019 10 16 0.00 0.00
11:15 am 11:15 Sunny 76 24.5 58 14.3 53 53 W 5 7 30.09 1019 10 16 0.00 0.00
11:35 am 11:35 Sunny 76 24.3 57 13.8 52 52 Calm 30.09 1019 10 16 0.00 0.00
11:55 am 11:55 Sunny 77 24.8 56 13.6 50 50 NNW 3 6 30.09 1019 10 16 0.00 0.00
12:15 pm 12:15 Sunny 77 24.8 56 13.2 49 49 Calm 30.09 1019 10 16 0.00 0.00
12:35 pm 12:35 Sunny 77 25.1 56 13.2 48 48 Calm 30.09 1019 10 16 0.00 0.00
12:55 pm 12:55 Partly Cloudy 77 25.2 56 13.6 49 49 Calm 30.09 1019 10 16 0.00 0.00
1:15 pm 13:15 Partly Cloudy 77 25.1 58 14.4 52 52 Calm 30.09 1019 10 16 0.00 0.00
1:35 pm 13:35 Partly Cloudy 79 26.1 57 13.8 47 47 Calm 30.09 1019 10 16 0.00 0.00
1:55 pm 13:55 Partly Cloudy 78 25.5 57 13.8 48 48 Calm 30.09 1019 10 16 0.00 0.00
2:15 pm 14:15 Partly Cloudy 79 26 57 14.1 48 48 SSW 5 7 30.09 1019 10 16 0.00 0.00
2:30 pm 14:30 Partly Cloudy 79 26 58 14.7 50 50 SSW 5 7 30.09 1019 10 16 0.00 0.00

Powered by AerisWeather